User: anonymous
Location: Radford
(37.1320°N, 80.5770°W)
Time: 05:18:05
(UTC-04:00)
Language:

Okean 1-7 - Orbit

View from above orbital plane
View from above orbital plane
View from above satellite
View from above satellite

Ground track
Ground track

The orbit data is extracted from the following two-line orbital elements,

1 23317U 94066A   14202.11279503  .00000262  00000-0  27412-4 0  5938
2 23317 082.5368 036.1220 0019884 350.8567 160.7179 14.85590963 68148
Epoch (UTC): 21 July 2014 02:42:25
Eccentricity: 0.0019884
inclination: 82.5368°
perigee height: 598 km
apogee height: 625 km
right ascension of ascending node: 36.1220°
argument of perigee: 350.8567°
revolutions per day: 14.85590963
mean anomaly at epoch: 160.7179°
orbit number at epoch: 6814

The dashed part of the orbit path shows where the satellite is in the earth's shadow,  

DLR